Location: Carrières
(48.9495°N, 2.0407°E)
Time: 00:00:46
(UTC+00:00)

SR - Pass Details

Date: 19 April 2024
Orbit: 568 x 858 km, 66.7° (Epoch: 18 April)

Event Time Altitude Azimuth Distance (km) Brightness Sun altitude
Exits shadow 00:52:30 20° 104° (ESE) 1,735 ? -28.3°
Drops below altitude 10° 00:55:56 10° 63° (ENE) 2,281 ? -28.1°
Sets 00:58:46 0° 47° (NE) 3,152 ? -27.9°
